ProjectID,Date,Electric Generation,Electric Utility Import,Facility Electric Load
,YYYY-MM-DD,kW,kW,kW
129,2013-10-01,0.0,,0.0
129,2013-10-02,0.0,,0.0
129,2013-10-03,0.0,,0.0
129,2013-10-04,0.0,,0.0
129,2013-10-05,0.0,,0.0
129,2013-10-06,0.0,,0.0
129,2013-10-07,12.583333333333334,,12.583333333333334
129,2013-10-08,41.75,,41.75
129,2013-10-09,27.833333333333332,,27.833333333333332
129,2013-10-10,13.958333333333334,,13.958333333333334
129,2013-10-11,12.166666666666666,,12.166666666666666
129,2013-10-12,39.916666666666664,,39.916666666666664
129,2013-10-13,23.833333333333332,,23.833333333333332
129,2013-10-14,38.75,,38.75
129,2013-10-15,42.0,,42.0
129,2013-10-16,14.166666666666666,,14.166666666666666
129,2013-10-17,24.291666666666668,,24.291666666666668
129,2013-10-18,41.625,,41.625
129,2013-10-19,21.083333333333332,,21.083333333333332
129,2013-10-20,42.291666666666664,,42.291666666666664
129,2013-10-21,39.833333333333336,,39.833333333333336
129,2013-10-22,22.666666666666668,,22.666666666666668
129,2013-10-23,13.166666666666666,,13.166666666666666
129,2013-10-24,38.75,,38.75
129,2013-10-25,35.541666666666664,,35.541666666666664
129,2013-10-26,38.666666666666664,,38.666666666666664
129,2013-10-27,35.041666666666664,,35.041666666666664
129,2013-10-28,37.583333333333336,,37.583333333333336
129,2013-10-29,27.791666666666668,,27.791666666666668
129,2013-10-30,10.125,,10.125
129,2013-10-31,7.458333333333333,,7.458333333333333
129,2013-11-01,10.541666666666666,,10.541666666666666
129,2013-11-02,29.0,,29.0
129,2013-11-03,24.541666666666668,,24.541666666666668
129,2013-11-04,37.791666666666664,,37.791666666666664
129,2013-11-05,24.5,,24.5
129,2013-11-06,0.0,,0.0
129,2013-11-07,4.458333333333333,,4.458333333333333
129,2013-11-08,29.458333333333332,,29.458333333333332
129,2013-11-09,17.083333333333332,,17.083333333333332
129,2013-11-10,2.875,,2.875
129,2013-11-11,0.0,,0.0
129,2013-11-12,8.208333333333334,,8.208333333333334
129,2013-11-13,25.875,,25.875
129,2013-11-14,33.541666666666664,,33.541666666666664
129,2013-11-15,22.791666666666668,,22.791666666666668
129,2013-11-16,27.291666666666668,,27.291666666666668
129,2013-11-17,3.6666666666666665,,3.6666666666666665
129,2013-11-18,28.833333333333332,,28.833333333333332
129,2013-11-19,31.541666666666668,,31.541666666666668
129,2013-11-20,31.5,,31.5
129,2013-11-21,25.5,,25.5
129,2013-11-22,6.166666666666667,,6.166666666666667
129,2013-11-23,26.666666666666668,,26.666666666666668
129,2013-11-24,31.416666666666668,,31.416666666666668
129,2013-11-25,30.166666666666668,,30.166666666666668
129,2013-11-26,6.541666666666667,,6.541666666666667
129,2013-11-27,2.0,,2.0
129,2013-11-28,29.958333333333332,,29.958333333333332
129,2013-11-29,26.25,,26.25
129,2013-11-30,26.916666666666668,,26.916666666666668
129,2013-12-01,20.666666666666668,,20.666666666666668
129,2013-12-02,8.041666666666666,,8.041666666666666
129,2013-12-03,19.75,,19.75
129,2013-12-04,19.166666666666668,,19.166666666666668
129,2013-12-05,3.0416666666666665,,3.0416666666666665
129,2013-12-06,2.0,,2.0
129,2013-12-07,16.916666666666668,,16.916666666666668
129,2013-12-08,6.041666666666667,,6.041666666666667
129,2013-12-09,4.25,,4.25
129,2013-12-10,0.08333333333333333,,0.08333333333333333
129,2013-12-11,2.1666666666666665,,2.1666666666666665
129,2013-12-12,3.7916666666666665,,3.7916666666666665
129,2013-12-13,5.958333333333333,,5.958333333333333
129,2013-12-14,0.16666666666666666,,0.16666666666666666
129,2013-12-15,8.875,,8.875
129,2013-12-16,22.416666666666668,,22.416666666666668
129,2013-12-17,0.0,,0.0
129,2013-12-18,1.375,,1.375
129,2013-12-19,12.958333333333334,,12.958333333333334
129,2013-12-20,14.666666666666666,,14.666666666666666
129,2013-12-21,19.041666666666668,,19.041666666666668
129,2013-12-22,6.333333333333333,,6.333333333333333
129,2013-12-23,1.25,,1.25
129,2013-12-24,22.0,,22.0
129,2013-12-25,17.583333333333332,,17.583333333333332
129,2013-12-26,9.583333333333334,,9.583333333333334
129,2013-12-27,19.416666666666668,,19.416666666666668
129,2013-12-28,21.083333333333332,,21.083333333333332
129,2013-12-29,1.9583333333333333,,1.9583333333333333
129,2013-12-30,7.541666666666667,,7.541666666666667
129,2013-12-31,15.333333333333334,,15.333333333333334
129,2014-01-01,16.833333333333332,,16.833333333333332
129,2014-01-02,0.25,,0.25
129,2014-01-03,0.20833333333333334,,0.20833333333333334
129,2014-01-04,0.2916666666666667,,0.2916666666666667
129,2014-01-05,0.0,,0.0
129,2014-01-06,3.7083333333333335,,3.7083333333333335
129,2014-01-07,29.916666666666668,,29.916666666666668
129,2014-01-08,28.375,,28.375
129,2014-01-09,28.041666666666668,,28.041666666666668
129,2014-01-10,0.6666666666666666,,0.6666666666666666
129,2014-01-11,0.9583333333333334,,0.9583333333333334
129,2014-01-12,12.208333333333334,,12.208333333333334
129,2014-01-13,20.083333333333332,,20.083333333333332
129,2014-01-14,1.625,,1.625
129,2014-01-15,21.083333333333332,,21.083333333333332
129,2014-01-16,5.291666666666667,,5.291666666666667
129,2014-01-17,28.458333333333332,,28.458333333333332
129,2014-01-18,8.458333333333334,,8.458333333333334
129,2014-01-19,19.916666666666668,,19.916666666666668
129,2014-01-20,9.25,,9.25
129,2014-01-21,0.4583333333333333,,0.4583333333333333
129,2014-01-22,0.5,,0.5
129,2014-01-23,3.5416666666666665,,3.5416666666666665
129,2014-01-24,6.666666666666667,,6.666666666666667
129,2014-01-25,3.2916666666666665,,3.2916666666666665
129,2014-01-26,1.75,,1.75
129,2014-01-27,8.0,,8.0
129,2014-01-28,23.416666666666668,,23.416666666666668
129,2014-01-29,15.541666666666666,,15.541666666666666
129,2014-01-30,34.0,,34.0
129,2014-01-31,13.208333333333334,,13.208333333333334
129,2014-02-01,22.916666666666668,,22.916666666666668
129,2014-02-02,18.958333333333332,,18.958333333333332
129,2014-02-03,0.0,,0.0
129,2014-02-04,0.041666666666666664,,0.041666666666666664
129,2014-02-05,0.0,,0.0
129,2014-02-06,0.0,,0.0
129,2014-02-07,0.0,,0.0
129,2014-02-08,0.0,,0.0
129,2014-02-09,0.0,,0.0
129,2014-02-10,0.0,,0.0
129,2014-02-11,0.0,,0.0
129,2014-02-12,0.0,,0.0
129,2014-02-13,0.0,,0.0
129,2014-02-14,0.0,,0.0
129,2014-02-15,0.0,,0.0
129,2014-02-16,0.0,,0.0
129,2014-02-17,0.0,,0.0
129,2014-02-18,0.0,,0.0
129,2014-02-19,0.0,,0.0
129,2014-02-20,0.0,,0.0
129,2014-02-21,0.0,,0.0
129,2014-02-22,0.25,,0.25
129,2014-02-23,15.375,,15.375
129,2014-02-24,39.625,,39.625
129,2014-02-25,22.375,,22.375
129,2014-02-26,21.125,,21.125
129,2014-02-27,34.541666666666664,,34.541666666666664
129,2014-02-28,48.958333333333336,,48.958333333333336
129,2014-03-01,39.5,,39.5
129,2014-03-02,8.875,,8.875
129,2014-03-03,14.833333333333334,,14.833333333333334
129,2014-03-04,37.458333333333336,,37.458333333333336
129,2014-03-05,25.5,,25.5
129,2014-03-06,48.458333333333336,,48.458333333333336
129,2014-03-07,19.458333333333332,,19.458333333333332
129,2014-03-08,44.583333333333336,,44.583333333333336
129,2014-03-09,51.083333333333336,,51.083333333333336
129,2014-03-10,21.375,,21.375
129,2014-03-11,42.5,,42.5
129,2014-03-12,13.541666666666666,,13.541666666666666
129,2014-03-13,46.083333333333336,,46.083333333333336
129,2014-03-14,38.625,,38.625
129,2014-03-15,44.916666666666664,,44.916666666666664
129,2014-03-16,44.416666666666664,,44.416666666666664
129,2014-03-17,30.958333333333332,,30.958333333333332
129,2014-03-18,47.083333333333336,,47.083333333333336
129,2014-03-19,21.458333333333332,,21.458333333333332
129,2014-03-20,39.583333333333336,,39.583333333333336
129,2014-03-21,57.875,,57.875
129,2014-03-22,40.375,,40.375
129,2014-03-23,24.291666666666668,,24.291666666666668
129,2014-03-24,53.75,,53.75
129,2014-03-25,37.041666666666664,,37.041666666666664
129,2014-03-26,57.333333333333336,,57.333333333333336
129,2014-03-27,53.416666666666664,,53.416666666666664
129,2014-03-28,11.541666666666666,,11.541666666666666
129,2014-03-29,10.166666666666666,,10.166666666666666
129,2014-03-30,16.541666666666668,,16.541666666666668
129,2014-03-31,44.875,,44.875
129,2014-04-01,51.833333333333336,,51.833333333333336
129,2014-04-02,22.458333333333332,,22.458333333333332
129,2014-04-03,55.666666666666664,,55.666666666666664
129,2014-04-04,0.875,,0.875
129,2014-04-05,0.0,,0.0
129,2014-04-06,0.0,,0.0
129,2014-04-07,21.166666666666668,,21.166666666666668
129,2014-04-08,0.0,,0.0
129,2014-04-09,58.041666666666664,,58.041666666666664
129,2014-04-10,63.458333333333336,,63.458333333333336
129,2014-04-11,0.0,,0.0
129,2014-04-12,21.041666666666668,,21.041666666666668
129,2014-04-13,51.0,,51.0
129,2014-04-14,48.875,,48.875
129,2014-04-15,3.7083333333333335,,3.7083333333333335
129,2014-04-16,61.708333333333336,,61.708333333333336
129,2014-04-17,61.916666666666664,,61.916666666666664
129,2014-04-18,42.583333333333336,,42.583333333333336
129,2014-04-19,63.041666666666664,,63.041666666666664
129,2014-04-20,64.95833333333333,,64.95833333333333
129,2014-04-21,64.58333333333333,,64.58333333333333
129,2014-04-22,45.166666666666664,,45.166666666666664
129,2014-04-23,45.125,,45.125
129,2014-04-24,68.04166666666667,,68.04166666666667
129,2014-04-25,53.0,,53.0
129,2014-04-26,42.25,,42.25
129,2014-04-27,51.25,,51.25
129,2014-04-28,62.708333333333336,,62.708333333333336
129,2014-04-29,14.333333333333334,,14.333333333333334
129,2014-04-30,3.5833333333333335,,3.5833333333333335
129,2014-05-01,42.708333333333336,,42.708333333333336
129,2014-05-02,45.041666666666664,,45.041666666666664
129,2014-05-03,48.208333333333336,,48.208333333333336
129,2014-05-04,45.375,,45.375
129,2014-05-05,65.95833333333333,,65.95833333333333
129,2014-05-06,55.0,,55.0
129,2014-05-07,58.791666666666664,,58.791666666666664
129,2014-05-08,10.666666666666666,,10.666666666666666
129,2014-05-09,12.333333333333334,,12.333333333333334
129,2014-05-10,43.291666666666664,,43.291666666666664
129,2014-05-11,65.83333333333333,,65.83333333333333
129,2014-05-12,51.166666666666664,,51.166666666666664
129,2014-05-13,55.833333333333336,,55.833333333333336
129,2014-05-14,47.083333333333336,,47.083333333333336
129,2014-05-15,13.0,,13.0
129,2014-05-16,12.708333333333334,,12.708333333333334
129,2014-05-17,38.25,,38.25
129,2014-05-18,48.166666666666664,,48.166666666666664
129,2014-05-19,65.16666666666667,,65.16666666666667
129,2014-05-20,64.79166666666667,,64.79166666666667
129,2014-05-21,47.25,,47.25
129,2014-05-22,8.541666666666666,,8.541666666666666
129,2014-05-23,39.916666666666664,,39.916666666666664
129,2014-05-24,32.416666666666664,,32.416666666666664
129,2014-05-25,65.91666666666667,,65.91666666666667
129,2014-05-26,58.5,,58.5
129,2014-05-27,45.041666666666664,,45.041666666666664
129,2014-05-28,13.166666666666666,,13.166666666666666
129,2014-05-29,69.375,,69.375
129,2014-05-30,52.958333333333336,,52.958333333333336
129,2014-05-31,47.666666666666664,,47.666666666666664
129,2014-06-01,66.91666666666667,,66.91666666666667
129,2014-06-02,66.16666666666667,,66.16666666666667
129,2014-06-03,57.208333333333336,,57.208333333333336
129,2014-06-04,52.25,,52.25
129,2014-06-05,31.916666666666668,,31.916666666666668
129,2014-06-06,57.416666666666664,,57.416666666666664
129,2014-06-07,61.625,,61.625
129,2014-06-08,60.708333333333336,,60.708333333333336
129,2014-06-09,7.0,,7.0
129,2014-06-10,32.958333333333336,,32.958333333333336
129,2014-06-11,19.208333333333332,,19.208333333333332
129,2014-06-12,17.125,,17.125
129,2014-06-13,35.166666666666664,,35.166666666666664
129,2014-06-14,49.958333333333336,,49.958333333333336
129,2014-06-15,67.0,,67.0
129,2014-06-16,65.625,,65.625
129,2014-06-17,54.416666666666664,,54.416666666666664
129,2014-06-18,64.16666666666667,,64.16666666666667
129,2014-06-19,26.458333333333332,,26.458333333333332
129,2014-06-20,63.375,,63.375
129,2014-06-21,65.25,,65.25
129,2014-06-22,62.833333333333336,,62.833333333333336
129,2014-06-23,61.291666666666664,,61.291666666666664
129,2014-06-24,54.875,,54.875
129,2014-06-25,56.416666666666664,,56.416666666666664
129,2014-06-26,47.791666666666664,,47.791666666666664
129,2014-06-27,61.625,,61.625
129,2014-06-28,62.541666666666664,,62.541666666666664
129,2014-06-29,64.29166666666667,,64.29166666666667
129,2014-06-30,55.291666666666664,,55.291666666666664
129,2014-07-01,59.625,,59.625
129,2014-07-02,56.041666666666664,,56.041666666666664
129,2014-07-03,53.75,,53.75
129,2014-07-04,22.416666666666668,,22.416666666666668
129,2014-07-05,67.5,,67.5
129,2014-07-06,66.20833333333333,,66.20833333333333
129,2014-07-07,59.041666666666664,,59.041666666666664
129,2014-07-08,53.416666666666664,,53.416666666666664
129,2014-07-09,51.583333333333336,,51.583333333333336
129,2014-07-10,52.5,,52.5
129,2014-07-11,59.958333333333336,,59.958333333333336
129,2014-07-12,60.708333333333336,,60.708333333333336
129,2014-07-13,47.208333333333336,,47.208333333333336
129,2014-07-14,33.583333333333336,,33.583333333333336
129,2014-07-15,33.958333333333336,,33.958333333333336
129,2014-07-16,40.333333333333336,,40.333333333333336
129,2014-07-17,49.75,,49.75
129,2014-07-18,61.083333333333336,,61.083333333333336
129,2014-07-19,19.625,,19.625
129,2014-07-20,0.0,,0.0
129,2014-07-21,1.9583333333333333,,1.9583333333333333
129,2014-07-22,54.916666666666664,,54.916666666666664
129,2014-07-23,57.041666666666664,,57.041666666666664
129,2014-07-24,48.083333333333336,,48.083333333333336
129,2014-07-25,60.541666666666664,,60.541666666666664
129,2014-07-26,32.416666666666664,,32.416666666666664
129,2014-07-27,40.708333333333336,,40.708333333333336
129,2014-07-28,40.333333333333336,,40.333333333333336
129,2014-07-29,53.541666666666664,,53.541666666666664
129,2014-07-30,54.791666666666664,,54.791666666666664
129,2014-07-31,48.791666666666664,,48.791666666666664
129,2014-08-01,37.666666666666664,,37.666666666666664
129,2014-08-02,31.375,,31.375
129,2014-08-03,47.083333333333336,,47.083333333333336
129,2014-08-04,47.625,,47.625
129,2014-08-05,58.458333333333336,,58.458333333333336
129,2014-08-06,52.291666666666664,,52.291666666666664
129,2014-08-07,56.208333333333336,,56.208333333333336
129,2014-08-08,58.541666666666664,,58.541666666666664
129,2014-08-09,50.583333333333336,,50.583333333333336
129,2014-08-10,55.375,,55.375
129,2014-08-11,54.375,,54.375
129,2014-08-12,23.041666666666668,,23.041666666666668
129,2014-08-13,30.833333333333332,,30.833333333333332
129,2014-08-14,55.291666666666664,,55.291666666666664
129,2014-08-15,40.0,,40.0
129,2014-08-16,48.625,,48.625
129,2014-08-17,43.875,,43.875
129,2014-08-18,51.375,,51.375
129,2014-08-19,59.625,,59.625
129,2014-08-20,53.833333333333336,,53.833333333333336
129,2014-08-21,40.291666666666664,,40.291666666666664
129,2014-08-22,33.458333333333336,,33.458333333333336
129,2014-08-23,37.208333333333336,,37.208333333333336
129,2014-08-24,55.875,,55.875
129,2014-08-25,55.916666666666664,,55.916666666666664
129,2014-08-26,54.875,,54.875
129,2014-08-27,52.708333333333336,,52.708333333333336
129,2014-08-28,47.958333333333336,,47.958333333333336
129,2014-08-29,56.166666666666664,,56.166666666666664
129,2014-08-30,41.791666666666664,,41.791666666666664
129,2014-08-31,23.625,,23.625
129,2014-09-01,37.708333333333336,,37.708333333333336
129,2014-09-02,46.166666666666664,,46.166666666666664
129,2014-09-03,49.625,,49.625
129,2014-09-04,51.75,,51.75
129,2014-09-05,48.625,,48.625
129,2014-09-06,38.375,,38.375
129,2014-09-07,50.916666666666664,,50.916666666666664
129,2014-09-08,36.833333333333336,,36.833333333333336
129,2014-09-09,22.916666666666668,,22.916666666666668
129,2014-09-10,52.083333333333336,,52.083333333333336
129,2014-09-11,20.375,,20.375
129,2014-09-12,53.958333333333336,,53.958333333333336
129,2014-09-13,12.0,,12.0
129,2014-09-14,51.416666666666664,,51.416666666666664
129,2014-09-15,52.625,,52.625
129,2014-09-16,21.583333333333332,,21.583333333333332
129,2014-09-17,51.583333333333336,,51.583333333333336
129,2014-09-18,43.083333333333336,,43.083333333333336
129,2014-09-19,50.583333333333336,,50.583333333333336
129,2014-09-20,42.583333333333336,,42.583333333333336
129,2014-09-21,18.958333333333332,,18.958333333333332
129,2014-09-22,0.16666666666666666,,0.16666666666666666
129,2014-09-23,44.291666666666664,,44.291666666666664
129,2014-09-24,35.625,,35.625
129,2014-09-25,14.416666666666666,,14.416666666666666
129,2014-09-26,49.125,,49.125
129,2014-09-27,47.833333333333336,,47.833333333333336
129,2014-09-28,43.375,,43.375
129,2014-09-29,22.666666666666668,,22.666666666666668
129,2014-09-30,10.958333333333334,,10.958333333333334
129,2014-10-01,9.958333333333334,,9.958333333333334
129,2014-10-02,17.041666666666668,,17.041666666666668
129,2014-10-03,46.083333333333336,,46.083333333333336
129,2014-10-04,5.041666666666667,,5.041666666666667
129,2014-10-05,48.958333333333336,,48.958333333333336
129,2014-10-06,45.625,,45.625
129,2014-10-07,27.416666666666668,,27.416666666666668
129,2014-10-08,44.166666666666664,,44.166666666666664
129,2014-10-09,32.25,,32.25
129,2014-10-10,26.125,,26.125
129,2014-10-11,9.75,,9.75
129,2014-10-12,45.5,,45.5
129,2014-10-13,10.791666666666666,,10.791666666666666
129,2014-10-14,31.458333333333332,,31.458333333333332
129,2014-10-15,19.625,,19.625
129,2014-10-16,17.291666666666668,,17.291666666666668
129,2014-10-17,37.875,,37.875
129,2014-10-18,19.666666666666668,,19.666666666666668
129,2014-10-19,37.666666666666664,,37.666666666666664
129,2014-10-20,29.458333333333332,,29.458333333333332
129,2014-10-21,20.541666666666668,,20.541666666666668
129,2014-10-22,7.666666666666667,,7.666666666666667
129,2014-10-23,10.666666666666666,,10.666666666666666
129,2014-10-24,14.458333333333334,,14.458333333333334
129,2014-10-25,37.291666666666664,,37.291666666666664
129,2014-10-26,29.583333333333332,,29.583333333333332
129,2014-10-27,39.0,,39.0
129,2014-10-28,25.333333333333332,,25.333333333333332
129,2014-10-29,16.916666666666668,,16.916666666666668
129,2014-10-30,32.291666666666664,,32.291666666666664
129,2014-10-31,14.875,,14.875
129,2014-11-01,3.0,,3.0
129,2014-11-02,32.083333333333336,,32.083333333333336
129,2014-11-03,36.166666666666664,,36.166666666666664
129,2014-11-04,32.166666666666664,,32.166666666666664
129,2014-11-05,9.5,,9.5
129,2014-11-06,1.125,,1.125
129,2014-11-07,20.625,,20.625
129,2014-11-08,32.958333333333336,,32.958333333333336
129,2014-11-09,21.416666666666668,,21.416666666666668
129,2014-11-10,0.0,,0.0
129,2014-11-11,23.625,,23.625
129,2014-11-12,9.5,,9.5
129,2014-11-13,21.0,,21.0
129,2014-11-14,31.375,,31.375
129,2014-11-15,33.291666666666664,,33.291666666666664
129,2014-11-16,7.041666666666667,,7.041666666666667
129,2014-11-17,1.9166666666666667,,1.9166666666666667
129,2014-11-18,33.458333333333336,,33.458333333333336
129,2014-11-19,32.083333333333336,,32.083333333333336
129,2014-11-20,25.833333333333332,,25.833333333333332
129,2014-11-21,31.375,,31.375
129,2014-11-22,28.125,,28.125
129,2014-11-23,19.791666666666668,,19.791666666666668
129,2014-11-24,13.333333333333334,,13.333333333333334
129,2014-11-25,8.166666666666666,,8.166666666666666
129,2014-11-26,0.375,,0.375
129,2014-11-27,10.083333333333334,,10.083333333333334
129,2014-11-28,26.875,,26.875
129,2014-11-29,15.791666666666666,,15.791666666666666
129,2014-11-30,17.166666666666668,,17.166666666666668
129,2014-12-01,15.0,,15.0
129,2014-12-02,7.416666666666667,,7.416666666666667
129,2014-12-03,3.5,,3.5
129,2014-12-04,25.666666666666668,,25.666666666666668
129,2014-12-05,9.0,,9.0
129,2014-12-06,1.9166666666666667,,1.9166666666666667
129,2014-12-07,25.75,,25.75
129,2014-12-08,5.375,,5.375
129,2014-12-09,0.25,,0.25
129,2014-12-10,7.458333333333333,,7.458333333333333
129,2014-12-11,12.125,,12.125
129,2014-12-12,22.041666666666668,,22.041666666666668
129,2014-12-13,25.5,,25.5
129,2014-12-14,10.916666666666666,,10.916666666666666
129,2014-12-15,24.458333333333332,,24.458333333333332
129,2014-12-16,4.458333333333333,,4.458333333333333
129,2014-12-17,16.916666666666668,,16.916666666666668
129,2014-12-18,22.958333333333332,,22.958333333333332
129,2014-12-19,16.25,,16.25
129,2014-12-20,7.083333333333333,,7.083333333333333
129,2014-12-21,5.291666666666667,,5.291666666666667
129,2014-12-22,8.458333333333334,,8.458333333333334
129,2014-12-23,3.4583333333333335,,3.4583333333333335
129,2014-12-24,1.25,,1.25
129,2014-12-25,14.5,,14.5
129,2014-12-26,24.833333333333332,,24.833333333333332
129,2014-12-27,23.541666666666668,,23.541666666666668
129,2014-12-28,7.791666666666667,,7.791666666666667
129,2014-12-29,23.583333333333332,,23.583333333333332
129,2014-12-30,14.791666666666666,,14.791666666666666
129,2014-12-31,21.166666666666668,,21.166666666666668
129,2015-01-01,26.291666666666668,,26.291666666666668
129,2015-01-02,20.083333333333332,,20.083333333333332
129,2015-01-03,5.916666666666667,,5.916666666666667
129,2015-01-04,3.3333333333333335,,3.3333333333333335
129,2015-01-05,23.583333333333332,,23.583333333333332
129,2015-01-06,2.4583333333333335,,2.4583333333333335
129,2015-01-07,14.541666666666666,,14.541666666666666
129,2015-01-08,28.333333333333332,,28.333333333333332
129,2015-01-09,1.1666666666666667,,1.1666666666666667
129,2015-01-10,5.958333333333333,,5.958333333333333
129,2015-01-11,5.416666666666667,,5.416666666666667
129,2015-01-12,1.75,,1.75
129,2015-01-13,30.958333333333332,,30.958333333333332
129,2015-01-14,13.375,,13.375
129,2015-01-15,27.208333333333332,,27.208333333333332
129,2015-01-16,25.791666666666668,,25.791666666666668
129,2015-01-17,31.125,,31.125
129,2015-01-18,0.75,,0.75
129,2015-01-19,14.708333333333334,,14.708333333333334
129,2015-01-20,24.041666666666668,,24.041666666666668
129,2015-01-21,18.625,,18.625
129,2015-01-22,24.708333333333332,,24.708333333333332
129,2015-01-23,31.875,,31.875
129,2015-01-24,0.0,,0.0
129,2015-01-25,1.75,,1.75
129,2015-01-26,0.125,,0.125
129,2015-01-27,0.6666666666666666,,0.6666666666666666
129,2015-01-28,3.5833333333333335,,3.5833333333333335
129,2015-01-29,5.541666666666667,,5.541666666666667
129,2015-01-30,0.3333333333333333,,0.3333333333333333
129,2015-01-31,9.625,,9.625
129,2015-02-01,8.291666666666666,,8.291666666666666
129,2015-02-02,0.0,,0.0
129,2015-02-03,0.0,,0.0
129,2015-02-04,0.0,,0.0
129,2015-02-05,0.0,,0.0
129,2015-02-06,0.0,,0.0
129,2015-02-07,0.0,,0.0
129,2015-02-08,0.0,,0.0
129,2015-02-09,0.0,,0.0
129,2015-02-10,0.0,,0.0
129,2015-02-11,0.08333333333333333,,0.08333333333333333
129,2015-02-12,0.041666666666666664,,0.041666666666666664
129,2015-02-13,0.16666666666666666,,0.16666666666666666
129,2015-02-14,0.0,,0.0
129,2015-02-15,0.125,,0.125
129,2015-02-16,0.16666666666666666,,0.16666666666666666
129,2015-02-17,0.0,,0.0
129,2015-02-18,0.041666666666666664,,0.041666666666666664
129,2015-02-19,0.20833333333333334,,0.20833333333333334
129,2015-02-20,0.25,,0.25
129,2015-02-21,0.041666666666666664,,0.041666666666666664
129,2015-02-22,0.0,,0.0
129,2015-02-23,0.08333333333333333,,0.08333333333333333
129,2015-02-24,0.08333333333333333,,0.08333333333333333
129,2015-02-25,0.08333333333333333,,0.08333333333333333
129,2015-02-26,0.041666666666666664,,0.041666666666666664
129,2015-02-27,0.125,,0.125
129,2015-02-28,0.16666666666666666,,0.16666666666666666
129,2015-03-01,0.0,,0.0
129,2015-03-02,0.0,,0.0
129,2015-03-03,0.0,,0.0
129,2015-03-04,0.0,,0.0
129,2015-03-05,0.0,,0.0
129,2015-03-06,0.0,,0.0
129,2015-03-07,0.0,,0.0
129,2015-03-08,0.0,,0.0
129,2015-03-09,0.5416666666666666,,0.5416666666666666
129,2015-03-10,6.75,,6.75
129,2015-03-11,30.625,,30.625
129,2015-03-12,52.875,,52.875
129,2015-03-13,47.458333333333336,,47.458333333333336
129,2015-03-14,6.041666666666667,,6.041666666666667
129,2015-03-15,19.708333333333332,,19.708333333333332
129,2015-03-16,39.833333333333336,,39.833333333333336
129,2015-03-17,30.0,,30.0